Regional Weather Roundup
Issued by NWS

Home | Current Version | Previous Version | Text Only | Print | Product List | Glossary Off
Versions: 1 2 3 4 5 6 7 8 9 10 11 12 13 14 15 16 17 18 19 20 21 22 23 24 25 26 27 28 29 30 31 32 33 34 35 36 37 38 39 40 41 42 43 44 45 46 47 48 49 50

000
ASUS44 KMEG 191500
RWRTN
TENNESSEE HOURLY STATE WEATHER ROUNDUP
NATIONAL WEATHER SERVICE MEMPHIS TN
1000 AM CDT SUN APR 19 2015

TNZ002-004-019-021-049-052-054-088>092-191600-
WEST TENNESSEE

CITY           SKY/WX    TMP DP  RH WIND       PRES   REMARKS
MEMPHIS INTL   CLOUDY    68  64  87 NW12      29.62R
NWS MEMPHIS      N/A     65 N/A N/A MISG        N/A
JACKSON        CLOUDY    68  64  87 S5        29.60F
DYERSBURG      CLOUDY    66  54  63 W7        29.60F
PARIS          CLOUDY    64  64 100 S5        29.62F
LEXINGTON      CLOUDY    64  64 100 VRB6      29.63F
SAVANNAH       PTSUNNY   68  32  26 SW13      29.66S
$$

TNZ008-025-027-028-033-062-065-066-191600-
NORTH MIDDLE TENNESSEE

CITY           SKY/WX    TMP DP  RH WIND       PRES   REMARKS
NASHVILLE      LGT RAIN  66  65  96 W8G17     29.63R
CLARKSVILLE    LGT RAIN  68  66  93 SW6       29.62F
CROSSVILLE     LGT RAIN  65  61  87 S5        29.75F
$$

TNZ061-075-076-078-094-096-097-191600-
SOUTH MIDDLE TENNESSEE

CITY           SKY/WX    TMP DP  RH WIND       PRES   REMARKS
WINCHESTER     CLOUDY    68  63  83 S10       29.72R
SHELBYVILLE    CLOUDY    68  66  94 S13       29.69R
$$

TNZ017-018-042-046-047-191600-
NORTHEAST TENNESSEE

CITY           SKY/WX    TMP DP  RH WIND       PRES   REMARKS
TRI CITIES     LGT RAIN  65  61  87 E6        29.85F
ELIZABETHTON   LGT RAIN  63  57  82 E8        29.87F
$$

TNZ012-013-036-069-073-074-191600-
CENTRAL EAST TENNESSEE

CITY           SKY/WX    TMP DP  RH WIND       PRES   REMARKS
KNOXVILLE      CLOUDY    65  63  93 E8        29.77F
OAK RIDGE      LGT RAIN  64  62  93 NE3       29.79F FOG
GATLINBURG     PTSUNNY   63  63 100 CALM      29.79S
$$

TNZ083-085-099-191600-
SOUTHEAST TENNESSEE

CITY           SKY/WX    TMP DP  RH WIND       PRES   REMARKS
CHATTANOOGA    HVY RAIN  68  66  93 SE6       29.74F FOG
$$

SKY/WX REPORTED AS FAIR MEANS FEW OR NO CLOUDS BELOW
12 THOUSAND FEET.




USA.gov is the U.S. government's official web portal to all federal, state and local government web resources and services.